sat.trackr.live / text

‹ back to catalog

STARLINK-30391

NORAD 57817 · 2023-138K

PAYLOAD ACTIVE UNKNOWN

§ Identity

Operator
Country
US
Launch date
2023-09-09
Launch site
AFETR
Launch vehicle
Mass (kg)
RCS (m²)

Purposes: comms

External: N2YO · Heavens-Above · Gunter

§ Orbital elements

Epoch: 2026-09-20T06:31:18.053472Z

Period
94.27 min
Inclination
43.0012°
Eccentricity
0.0001470
Mean motion
15.27588155 rev/d
Perigee alt
482.0 km
Apogee alt
484.0 km
Semi-major
6,861.2 km
B*
3.4967e-4
RAAN
215.5831°
Arg perigee
269.2265°
Mean anomaly
90.8418°
Rev number
16,849

§ Raw data

STARLINK-303911 57817U 23138K   26263.27173673  .00009375  00000+0  34967-3 0  99952 57817  43.0012 215.5831 0001470 269.2265  90.8418 15.27588155168494

JSON: /api/v1/satellites/57817 · /tle

For live sub-satellite position, see the globe view (requires WebGL).

§ Visibility from observer

Set your observer location to see the next 7 days of passes ≥ 10°. The values pass through the URL so the page stays shareable.

No JS? Fill the form by hand. The geolocation button needs JavaScript.